Regional Weather Roundup
Issued by NWS State College, PA

Current Version | Previous Version | Text Only | Print | Product List | Glossary On
Versions: 1 2 3 4 5 6 7 8 9 10 11 12 13 14 15 16 17 18 19 20 21 22 23 24 25 26 27 28 29 30 31 32 33 34 35 36 37 38 39 40 41 42 43 44 45 46 47 48 49 50
000
ASUS41 KCTP 210603
RWRCTP
REGIONAL WEATHER ROUNDUP
NATIONAL WEATHER SERVICE STATE COLLEGE PA
200 AM EDT THU SEP 21 2017

Note: "fair" indicates few or no clouds below 12,000 feet with no
significant weather and/or obstructions to visibility.

* = STATION THAT DOES NOT REPORT PRECIPITATION /E.G. RAIN...SNOW...ETC/
    THUNDER OR FOG.

PAZ002>004-007>009-013>016-020>023-029>032-210700-
WESTERN PENNSYLVANIA

CITY           SKY/WX    TMP DP  RH WIND       PRES   REMARKS
ERIE           CLEAR     66  59  78 CALM      30.05R
MEADVILLE      CLEAR     66  61  84 CALM      30.08R
FRANKLIN*      CLEAR     61  61 100 CALM      30.09R
NEW CASTLE     MOCLDY    63  63 100 CALM      30.08R FOG
BEAVER COUNTY  NOT AVBL
BUTLER*        FOG       61  60  97 N3        30.08R VSB 1
PITTSBURGH INT PTCLDY    66  64  93 CALM      30.06R
PITTSBURGH     CLEAR     68  64  87 CALM      30.06R
INDIANA*       CLEAR     61  61 100 CALM      30.10R
LATROBE        CLEAR     59  59 100 CALM      30.08R FOG
WASHINGTON CO*   N/A     61  57  88 CALM      30.07R VSB 1/2
$$

PAZ004>006-010>012-017>019-024>028-033>037-041-042-045-046-049>053-210700-
CENTRAL PENNSYLVANIA

CITY           SKY/WX    TMP DP  RH WIND       PRES   REMARKS
BRADFORD       PTCLDY    58  56  93 CALM      30.11R
DUBOIS         CLEAR     61  55  81 CALM      30.08R
CLEARFIELD     CLEAR     60  57  89 N3        30.08S
JOHNSTOWN      CLEAR     65  57  75 SW3       30.11R
ALTOONA        CLEAR     59  58  96 CALM      30.08R
STATE COLLEGE  CLEAR     62  59  88 CALM      30.07R
WILLIAMSPORT   CLEAR     64  62  93 CALM      30.03R
SELINSGROVE    CLEAR     58  58 100 CALM      30.04R FOG
FT INDIANTOWN  CLEAR     64  62  95 S3        30.01R
CAPITAL CITY   CLEAR     65  60  84 CALM      30.01S
HARRISBURG     CLEAR     68  64  87 NW5       30.00S
YORK           CLEAR     59  59 100 CALM      30.02R
$$

PAZ038>040-043-044-047-048-054-055-060>062-067>071-210700-
EASTERN PENNSYLVANIA

CITY           SKY/WX    TMP DP  RH WIND       PRES   REMARKS
SCRANTON       PTCLDY    63  61  93 S5        30.03S
MOUNT POCONO   CLEAR     60  59  96 NW6       30.05S
ALLENTOWN      CLEAR     63  60  90 SW3       29.99S
QUAKERTOWN*    CLEAR     63  63 100 CALM      30.00S
READING        CLEAR     66  65  96 CALM      29.99R
LANCASTER      CLEAR     65  62  90 CALM      30.01R
COATESVILLE    CLEAR     70  63  78 N3        30.02S
POTTSTOWN      CLEAR     63  63 100 CALM      30.01R
BLUE BELL      CLEAR     63  63 100 SW3       30.00S
DOYLESTOWN     CLEAR     65  64  97 CALM      29.98R
WILLOW GROVE   NOT AVBL
NORTH PHILA    CLEAR     72  64  76 NW6       29.98S
PHILADELPHIA   PTCLDY    72  64  76 NW6       29.98R
$$



USA.gov is the U.S. government's official web portal to all federal, state and local government web resources and services.